Regional Weather Roundup
Issued by NWS

Home | Current Version | Previous Version | Graphics & Text | Print | Product List | Glossary Off
Versions: 1 2 3 4 5 6 7 8 9 10 11 12 13 14 15 16 17 18 19 20 21 22 23 24 25 26 27 28 29 30 31 32 33 34 35 36 37 38 39 40 41 42 43 44 45 46 47 48 49 50

000
ASUS43 KMKX 250610
RWRWI

WISCONSIN REGIONAL WEATHER ROUNDUP
NATIONAL WEATHER SERVICE MILWAUKEE/SULLIVAN WI
1200 AM CST SUN FEB 25 2018

NOTE: "FAIR" INDICATES FEW OR NO CLOUDS BELOW 12,000 FEET WITH NO
SIGNIFICANT WEATHER AND/OR OBSTRUCTIONS TO VISIBILITY.

WIZ001-002-006>008-014>016-023>028-250700-
NORTHWEST WISCONSIN

CITY           SKY/WX    TMP DP  RH WIND       PRES   REMARKS
SUPERIOR ARPT  LGT SNOW  28  27  98 NE10G18   29.43F WCI  18
6HR MIN TEMP:  24; 6HR MAX TEMP:  28; 6HR PCP:  0.09;

ASHLAND        LGT SNOW  28  26  92 NE7       29.41F FOG     WCI  21
6HR MIN TEMP:  22; 6HR MAX TEMP:  28; 6HR PCP: TRACE;

HAYWARD        LGT SNOW  29  27  92 NE3       29.38F FOG
6HR MIN TEMP:  29; 6HR MAX TEMP:  31; 6HR PCP:  0.33;

SIREN          LGT SNOW  27  26  97 N3        29.39F
6HR MIN TEMP:  27; 6HR MAX TEMP:  30;

CUMBERLAND     LGT SNOW  28  28 100 CALM      29.37F
RICE LAKE      LGT SNOW  30  30  99 SE3       29.39F
6HR MIN TEMP:  30; 6HR MAX TEMP:  31; 6HR PCP:  0.33;

CHETEK         LGT SNOW  30  30  99 CALM      29.39F
6HR MIN TEMP:  29; 6HR MAX TEMP:  32; 6HR PCP:  0.27;

LADYSMITH      LGT SNOW  30  29  96 CALM      29.39F
6HR MIN TEMP:  30; 6HR MAX TEMP:  33; 6HR PCP:  0.18;

EAU CLAIRE     LGT SNOW  31  30  96 SW9       29.40F FOG     WCI  23
6HR MIN TEMP:  30; 6HR MAX TEMP:  32; 6HR PCP:  0.25;

MENOMONIE      LGT SNOW  31  31  99 S5        29.41F WCI  27
6HR MIN TEMP:  31; 6HR MAX TEMP:  33; 6HR PCP:  0.25;

NEW RICHMOND   CLOUDY    30  29  97 SW12      29.41F WCI  20
6HR MIN TEMP:  29; 6HR MAX TEMP:  30;

OSCEOLA        FLURRIES  30  30 100 SW8       29.44F WCI  22
6HR MIN TEMP:  30; 6HR MAX TEMP:  30;

$$

WIZ003>005-009-010-017-018-250700-
NORTH CENTRAL WISCONSIN

CITY           SKY/WX    TMP DP  RH WIND       PRES   REMARKS
MANITOWISH WTR SNOW      27  27 100 SE6       29.38F VSB 1/2 WCI  21
6HR MIN TEMP:  27; 6HR MAX TEMP:  32; 6HR PCP:  0.05;

ARBOR VITAE    LGT SNOW  30  28  94 SE6       29.38F VSB 3/4 WCI  24
6HR MIN TEMP:  29; 6HR MAX TEMP:  34; 6HR PCP:  0.11;

WOODRUFF       LGT SNOW  30  28  94 SE6       29.38F VSB 3/4 WCI  24
6HR MIN TEMP:  29; 6HR MAX TEMP:  34; 6HR PCP:  0.11;

RHINELANDER    SNOW      29  29 100 SE6       29.39F VSB 1/2 WCI  23
6HR MIN TEMP:  28; 6HR MAX TEMP:  31; 6HR PCP:  0.12;

EAGLE RIVER    LGT SNOW  28  28  99 SE5       29.39F VSB 3/4 WCI  23
6HR MIN TEMP:  27; 6HR MAX TEMP:  32;

LAND O LAKES   LGT SNOW  28  27  93 SE8G18    29.41F VSB 3/4 WCI  20
6HR MIN TEMP:  28; 6HR MAX TEMP:  32;

PHILLIPS       LGT SNOW  28  28 100 SE3       29.37F VSB 1
6HR MIN TEMP:  28; 6HR MAX TEMP:  32; 6HR PCP:  0.15;

TOMAHAWK       LGT SNOW  29  28  94 SE3       29.38F VSB 3/4
6HR MIN TEMP:  28; 6HR MAX TEMP:  31;

MEDFORD        MIX PCPN  30  28  95 SE5       29.37F WCI  25
6HR MIN TEMP:  28; 6HR MAX TEMP:  31; 6HR PCP:  0.13;

MERRILL        SNOW      31  31 100 SE3       29.40F VSB 1/2
6HR MIN TEMP:  29; 6HR MAX TEMP:  31; 6HR PCP:  0.15;

$$

WIZ029-030-035-036-043>047-250700-
CENTRAL WISCONSIN

CITY           SKY/WX    TMP DP  RH WIND       PRES   REMARKS
WAUSAU         SNOW      32  31  96 SE7       29.37F VSB 1/2 WCI  26
6HR MIN TEMP:  29; 6HR MAX TEMP:  32; 6HR PCP:  0.23;

MOSINEE        LGT SNOW  32  32 100 SE6       29.39F VSB 3/4 WCI  26
MARSHFIELD     LGT SNOW  31  31 100 SE6       29.38F FOG     WCI  25
6HR MIN TEMP:  31; 6HR MAX TEMP:  32; 6HR PCP:  0.14;

STEVENS POINT  MIX PCPN  31  31 100 CALM      29.40F VSB 1
6HR MIN TEMP:  29; 6HR MAX TEMP:  31; 6HR PCP:  0.22;

WAUPACA        LGT SNOW  36  33  92 SE5       29.43F WCI  32
6HR MIN TEMP:  33; 6HR MAX TEMP:  36; 6HR PCP:  0.17;

WAUTOMA        MIX PCPN  34  32  93 E5        29.41  FOG     WCI  30
6HR MIN TEMP:  31; 6HR MAX TEMP:  33; 6HR PCP:  0.51;

WISC RAPIDS    LGT SNOW  32  30  92 MISG      29.42F FOG
6HR MIN TEMP:  32; 6HR MAX TEMP:  33; 6HR PCP:  0.33;

CAMP DOUGLAS   CLOUDY    33  33 100 SW10      29.43R WCI  25
6HR MIN TEMP:  32; 6HR MAX TEMP:  33; 6HR PCP:  0.32;

$$

WIZ011>013-019>022-031-037>040-048>050-250700-
NORTHEAST WISCONSIN

CITY           SKY/WX    TMP DP  RH WIND       PRES   REMARKS
ANTIGO         LGT SNOW  30  30 100 SE16      29.39F WCI  18
6HR MIN TEMP:  27; 6HR MAX TEMP:  30; 6HR PCP:  0.05;

SHAWANO        LGT RAIN  35  32  91 CALM      29.44F
6HR MIN TEMP:  32; 6HR MAX TEMP:  35; 6HR PCP:  0.23;

OCONTO         CLOUDY    32  32  99 SE7       29.44F WCI  26
6HR MIN TEMP:  31; 6HR MAX TEMP:  33; 6HR PCP:  0.17;

STURGEON BAY   LGT RAIN  33  32  96 E18G25    29.41F FOG     WCI  22
6HR MIN TEMP:  32; 6HR MAX TEMP:  35; 6HR PCP:  0.08;

GREEN BAY      HVY RAIN  35  32  88 S12       29.43F FOG     WCI  27
6HR MIN TEMP:  33; 6HR MAX TEMP:  35; 6HR PCP:  0.31;

MANITOWOC      RAIN      35  34  96 SE16G25   29.44F FOG     WCI  25
6HR MIN TEMP:  33; 6HR MAX TEMP:  36; 6HR PCP:  0.11;

APPLETON       LGT RAIN  34  34 100 S13       29.41R WCI  25
CLINTONVILLE   HVY RAIN  33  32  95 SE5       29.44F WCI  29
6HR MIN TEMP:  31; 6HR MAX TEMP:  34; 6HR PCP:  0.25;

OSHKOSH        LGT RAIN  36  35  96 S14       29.43R FOG     WCI  27
6HR MIN TEMP:  32; 6HR MAX TEMP:  36; 6HR PCP:  0.24;

$$

WIZ032>034-041-042-053>061-250700-
SOUTHWEST WISCONSIN

CITY           SKY/WX    TMP DP  RH WIND       PRES   REMARKS
LA CROSSE      CLOUDY    35  30  82 W10       29.48R WCI  27
6HR MIN TEMP:  33; 6HR MAX TEMP:  35; 6HR PCP:  0.27;

SPARTA         CLOUDY    32  32 100 SW8       29.46R WCI  25
6HR MIN TEMP:  31; 6HR MAX TEMP:  33; 6HR PCP:  0.12;

VIROQUA        CLOUDY    32  32 100 W12G22    29.47R WCI  23
6HR MIN TEMP:  32; 6HR MAX TEMP:  33; 6HR PCP:  0.15;

BOSCOBEL       CLOUDY    34  31  88 SW14G21   29.53R WCI  25
6HR MIN TEMP:  34; 6HR MAX TEMP:  38; 6HR PCP:  0.31;

PRAIRIE DU CHI CLOUDY    31  28  90 W20G28    29.56R WCI  18
6HR MIN TEMP:  31; 6HR MAX TEMP:  35; 6HR PCP:  0.29;

PLATTEVILLE    CLOUDY    33  33 100 W23G36    29.54R WCI  20
6HR MIN TEMP:  33; 6HR MAX TEMP:  37; 6HR PCP:  0.17;

$$

WIZ056-057-062-063-064-067-068-250700-
SOUTH CENTRAL WISCONSIN

CITY           SKY/WX    TMP DP  RH WIND       PRES   REMARKS
REEDSBURG      CLOUDY    35  35 100 SW12G18   29.45S WCI  26
6HR MIN TEMP:  32; 6HR MAX TEMP:  35; 6HR PCP:  0.38;

BARABOO/DELLS  LGT RAIN  35  35  97 SW13      29.44S WCI  27
6HR MIN TEMP:  32; 6HR MAX TEMP:  36; 6HR PCP:  0.28;

LONE ROCK      CLOUDY    35  33  92 W17G29    29.50R WCI  25
6HR MIN TEMP:  34; 6HR MAX TEMP:  37; 6HR PCP:  0.37;

MINERAL POINT  CLOUDY    34  34 100 W20G39    29.50R WCI  22
MADISON        LGT RAIN  38  37  97 VRB6      29.45F WCI  33
6HR MIN TEMP:  34; 6HR MAX TEMP:  38; 6HR PCP:  0.43;

MIDDLETON      CLOUDY    38  38 100 W17       29.45F WCI  29
6HR MIN TEMP:  35; 6HR MAX TEMP:  39; 6HR PCP:  0.22;

WATERTOWN      LGT RAIN  37  37 100 S6        29.44S WCI  32
6HR MIN TEMP:  34; 6HR MAX TEMP:  38; 6HR PCP:  0.22;

MONROE         CLOUDY    36  36 100 W33       29.49R WCI  22
JANESVILLE     LGT RAIN  41  41 100 W12       29.45F
$$

WIZ051-052-058>065-066-070>072-250700-
SOUTHEAST WISCONSIN

CITY           SKY/WX    TMP DP  RH WIND       PRES   REMARKS
MILWAUKEE      HVY RAIN  38  37  97 SE15      29.41F FOG     WCI  29
6HR MIN TEMP:  38; 6HR MAX TEMP:  38; 6HR PCP:  0.10;

WAUKESHA       RAIN      36  36 100 S8        29.46R WCI  29
MILWAUKEE/TIMM RAIN      36  34  93 S12       29.45S WCI  27
RACINE         LGT RAIN  38  38 100 S13G24    29.42F FOG     WCI  30
6HR MIN TEMP:  37; 6HR MAX TEMP:  38; 6HR PCP:  0.04;

BURLINGTON     MIX PCPN  38  37  96 SW3       29.44R
6HR MIN TEMP:  37; 6HR MAX TEMP:  39; 6HR PCP:  0.11;

KENOSHA        HVY RAIN  40  38  93 SW10G28   29.45R FOG     WCI  33
6HR MIN TEMP:  38; 6HR MAX TEMP:  39; 6HR PCP:  0.02;

FOND DU LAC    LGT RAIN  37  34  89 S12       29.42F WCI  29
6HR MIN TEMP:  34; 6HR MAX TEMP:  37; 6HR PCP:  0.23;

SHEBOYGAN      LGT RAIN  36  36 100 SE12G22   29.42F FOG     WCI  28
6HR MIN TEMP:  33; 6HR MAX TEMP:  36; 6HR PCP:  0.16;

WEST BEND      HVY RAIN  36  36 100 SE10G18   29.43F WCI  28
JUNEAU         RAIN      36  36  98 S7        29.45R WCI  31
6HR MIN TEMP:  33; 6HR MAX TEMP:  36; 6HR PCP:  0.22;

$$

LSZ147-162-250700-
LAKE SUPERIOR

STATION/POSITION TIME  TEMP    WIND        PRES    WAVE
                       AIR SEA DIR/SP/G            HT/PER
                 (UTC) (F)     (DEG/KT/KT) (MB)    (FT/S)
DEVILS ISLAND    0600   29      90/ 22/ 25  997.7F
SAXON HARBOR     0530   28      60/  5/  7  997.0F
$$

LMZ867-665-643>646-250700-
LAKE MICHIGAN

STATION/POSITION TIME  TEMP    WIND        PRES


USA.gov is the U.S. government's official web portal to all federal, state and local government web resources and services.